STARLINK-35282

Last updated on Mon Oct 20 2025 00:02:05 GMT+0000 (Coordinated Universal Time)

1 65658U 25211G 25292.25002315 -.02391144 00000+0 -58072-1 0 9997 2 65658 97.6033 334.4133 0001296 80.3102 300.9692 15.44457099 5779

Satellite not in orbit

STARLINK-35282